When you browse on this site, cookies collect data to enhance your experience and personalize the content and advertising you see.
Visit our Privacy Policy to learn more. By continuing to use the site, you agree to this use of cookies and data.
  • In Germany
  • List of Countries
  • For 7 days
  • Water Temperature
  • Weather Map
  • Weather Widgets
  • user-avatar
    Login

    Hourly Weather Berlin

    Today, 19 August, Monday

    Time Temperature Precipitation Wind Pressure Humidity
    00:00 +19°C° 0 mm 2 mps 754 mmHg 90%
    01:00 +18°C° 0 mm 2 mps 754 mmHg 89%
    02:00 +17°C° 0 mm 2 mps 755 mmHg 89%
    03:00 +17°C° 0 mm 2 mps 755 mmHg 90%
    04:00 +17°C° 0 mm 2 mps 755 mmHg 90%
    05:00 +17°C° 0 mm 2 mps 756 mmHg 88%
    06:00 +18°C° 0 mm 2 mps 756 mmHg 86%
    07:00 +18°C° 0 mm 2 mps 757 mmHg 84%
    08:00 +19°C° 0 mm 2 mps 757 mmHg 78%
    09:00 +20°C° 0 mm 3 mps 757 mmHg 71%
    10:00 +21°C° 0 mm 3 mps 757 mmHg 64%
    11:00 +22°C° 0 mm 4 mps 757 mmHg 56%
    12:00 +23°C° 0 mm 4 mps 758 mmHg 49%
    13:00 +25°C° 0 mm 5 mps 758 mmHg 41%
    14:00 +25°C° 0 mm 5 mps 758 mmHg 40%
    15:00 +25°C° 0 mm 5 mps 758 mmHg 39%
    16:00 +25°C° 0 mm 4 mps 758 mmHg 38%
    17:00 +23°C° 0 mm 4 mps 758 mmHg 44%
    18:00 +22°C° 0 mm 3 mps 759 mmHg 49%
    19:00 +21°C° 0 mm 3 mps 759 mmHg 55%
    20:00 +20°C° 0 mm 2 mps 759 mmHg 56%
    21:00 +19°C° 0 mm 2 mps 760 mmHg 57%
    22:00 +18°C° 0 mm 2 mps 760 mmHg 59%
    23:00 +18°C° 0 mm 1 mps 761 mmHg 60%

    Tomorrow, 20 August, Tuesday

    Time Temperature Precipitation Wind Pressure Humidity
    00:00 +18°C° 0 mm 1 mps 761 mmHg 61%
    01:00 +16°C° 0 mm 1 mps 761 mmHg 63%
    02:00 +16°C° 0 mm 1 mps 761 mmHg 65%
    03:00 +16°C° 0 mm 1 mps 761 mmHg 67%
    04:00 +15°C° 0 mm 1 mps 762 mmHg 69%
    05:00 +16°C° 0 mm 1 mps 762 mmHg 67%
    06:00 +18°C° 0 mm 1 mps 762 mmHg 66%
    07:00 +18°C° 0 mm 2 mps 762 mmHg 64%
    08:00 +19°C° 0 mm 2 mps 762 mmHg 58%
    09:00 +21°C° 0 mm 2 mps 762 mmHg 53%
    10:00 +24°C° 0 mm 2 mps 762 mmHg 47%
    11:00 +24°C° 0 mm 2 mps 762 mmHg 45%
    12:00 +25°C° 0 mm 2 mps 762 mmHg 43%
    13:00 +25°C° 0 mm 2 mps 762 mmHg 41%
    14:00 +25°C° 0 mm 2 mps 762 mmHg 42%
    15:00 +25°C° 0 mm 2 mps 762 mmHg 44%
    16:00 +25°C° 0 mm 2 mps 762 mmHg 45%
    17:00 +23°C° 0 mm 2 mps 762 mmHg 51%
    18:00 +21°C° 0 mm 2 mps 762 mmHg 58%
    19:00 +20°C° 0 mm 2 mps 763 mmHg 64%
    20:00 +19°C° 0.1 mm 2 mps 763 mmHg 68%
    21:00 +19°C° 0.1 mm 2 mps 763 mmHg 72%
    22:00 +18°C° 0.1 mm 2 mps 764 mmHg 77%
    23:00 +18°C° 0.1 mm 1 mps 764 mmHg 78%

    Day after tomorrow, 21 August, Wednesday

    Time Temperature Precipitation Wind Pressure Humidity
    00:00 +18°C° 0.1 mm 1 mps 764 mmHg 80%
    01:00 +16°C° 0.1 mm 1 mps 764 mmHg 82%
    02:00 +16°C° 0 mm 1 mps 765 mmHg 83%
    03:00 +15°C° 0 mm 1 mps 765 mmHg 84%
    04:00 +15°C° 0 mm 1 mps 765 mmHg 85%
    05:00 +15°C° 0 mm 2 mps 765 mmHg 83%
    06:00 +15°C° 0 mm 2 mps 765 mmHg 81%
    07:00 +16°C° 0 mm 2 mps 766 mmHg 79%
    08:00 +17°C° 0 mm 2 mps 766 mmHg 71%
    09:00 +19°C° 0 mm 2 mps 766 mmHg 63%
    10:00 +20°C° 0 mm 2 mps 766 mmHg 55%
    11:00 +21°C° 0 mm 2 mps 766 mmHg 50%
    12:00 +23°C° 0 mm 2 mps 766 mmHg 46%
    13:00 +24°C° 0 mm 2 mps 766 mmHg 41%
    14:00 +24°C° 0 mm 2 mps 766 mmHg 40%
    15:00 +24°C° 0 mm 2 mps 765 mmHg 39%
    16:00 +25°C° 0 mm 2 mps 765 mmHg 38%
    17:00 +23°C° 0 mm 2 mps 765 mmHg 43%
    18:00 +22°C° 0 mm 1 mps 765 mmHg 48%
    19:00 +21°C° 0 mm 1 mps 765 mmHg 52%
    20:00 +20°C° 0 mm 1 mps 766 mmHg 55%
    21:00 +19°C° 0 mm 1 mps 766 mmHg 57%
    22:00 +18°C° 0 mm 1 mps 766 mmHg 59%
    23:00 +18°C° 0 mm 1 mps 766 mmHg 61%

    22 August, Thursday

    Time Temperature Precipitation Wind Pressure Humidity
    00:00 +18°C° 0 mm 1 mps 766 mmHg 63%
    01:00 +16°C° 0 mm 1 mps 766 mmHg 65%
    02:00 +16°C° 0 mm 1 mps 766 mmHg 66%
    03:00 +16°C° 0 mm 1 mps 766 mmHg 68%
    04:00 +15°C° 0 mm 1 mps 765 mmHg 70%
    05:00 +16°C° 0 mm 1 mps 766 mmHg 68%
    06:00 +18°C° 0 mm 1 mps 766 mmHg 67%
    07:00 +19°C° 0 mm 1 mps 766 mmHg 65%
    08:00 +20°C° 0 mm 1 mps 766 mmHg 58%
    09:00 +22°C° 0 mm 1 mps 766 mmHg 51%
    10:00 +24°C° 0 mm 2 mps 766 mmHg 45%
    11:00 +25°C° 0 mm 1 mps 765 mmHg 41%
    12:00 +26°C° 0 mm 1 mps 765 mmHg 38%
    13:00 +27°C° 0 mm 1 mps 765 mmHg 34%
    14:00 +27°C° 0 mm 1 mps 765 mmHg 34%
    15:00 +27°C° 0 mm 1 mps 764 mmHg 34%
    16:00 +27°C° 0 mm 1 mps 764 mmHg 34%
    17:00 +25°C° 0 mm 1 mps 764 mmHg 40%
    18:00 +24°C° 0 mm 1 mps 764 mmHg 46%
    19:00 +23°C° 0 mm 1 mps 764 mmHg 52%
    20:00 +21°C° 0 mm 1 mps 765 mmHg 55%
    21:00 +20°C° 0 mm 1 mps 765 mmHg 59%
    22:00 +19°C° 0 mm 1 mps 765 mmHg 62%
    23:00 +19°C° 0 mm 1 mps 765 mmHg 64%

    23 August, Friday

    Time Temperature Precipitation Wind Pressure Humidity
    00:00 +19°C° 0 mm 1 mps 765 mmHg 66%
    01:00 +19°C° 0 mm 1 mps 765 mmHg 68%
    02:00 +18°C° 0 mm 1 mps 765 mmHg 70%
    03:00 +18°C° 0 mm 1 mps 765 mmHg 72%
    04:00 +18°C° 0 mm 1 mps 765 mmHg 74%
    05:00 +18°C° 0 mm 1 mps 765 mmHg 72%
    06:00 +19°C° 0 mm 1 mps 765 mmHg 69%
    07:00 +20°C° 0 mm 1 mps 765 mmHg 67%
    08:00 +22°C° 0 mm 1 mps 766 mmHg 60%
    09:00 +24°C° 0 mm 2 mps 766 mmHg 53%
    10:00 +26°C° 0 mm 2 mps 766 mmHg 46%
    11:00 +26°C° 0 mm 2 mps 765 mmHg 42%
    12:00 +27°C° 0 mm 2 mps 765 mmHg 39%
    13:00 +28°C° 0 mm 2 mps 765 mmHg 35%
    14:00 +28°C° 0 mm 2 mps 765 mmHg 35%
    15:00 +28°C° 0 mm 2 mps 764 mmHg 35%
    16:00 +28°C° 0 mm 2 mps 764 mmHg 35%
    17:00 +27°C° 0 mm 2 mps 764 mmHg 41%
    18:00 +25°C° 0 mm 2 mps 764 mmHg 47%
    19:00 +23°C° 0 mm 2 mps 764 mmHg 53%
    20:00 +23°C° 0 mm 2 mps 764 mmHg 54%
    21:00 +21°C° 0 mm 2 mps 764 mmHg 56%
    22:00 +20°C° 0 mm 2 mps 764 mmHg 58%
    23:00 +19°C° 0 mm 2 mps 764 mmHg 59%

    24 August, Saturday

    Time Temperature Precipitation Wind Pressure Humidity
    00:00 +19°C° 0 mm 2 mps 764 mmHg 61%
    01:00 +18°C° 0 mm 2 mps 764 mmHg 62%
    02:00 +18°C° 0 mm 2 mps 764 mmHg 66%
    03:00 +17°C° 0 mm 2 mps 763 mmHg 69%
    04:00 +17°C° 0 mm 2 mps 763 mmHg 73%
    05:00 +18°C° 0 mm 2 mps 763 mmHg 72%
    06:00 +18°C° 0 mm 3 mps 763 mmHg 71%
    07:00 +19°C° 0 mm 3 mps 763 mmHg 71%
    08:00 +21°C° 0 mm 3 mps 762 mmHg 65%
    09:00 +23°C° 0 mm 4 mps 762 mmHg 59%
    10:00 +25°C° 0 mm 4 mps 762 mmHg 53%
    11:00 +26°C° 0 mm 4 mps 762 mmHg 51%
    12:00 +27°C° 0 mm 4 mps 761 mmHg 48%
    13:00 +28°C° 0 mm 4 mps 760 mmHg 46%
    14:00 +28°C° 0 mm 4 mps 760 mmHg 47%
    15:00 +28°C° 0 mm 4 mps 759 mmHg 47%
    16:00 +28°C° 0 mm 4 mps 759 mmHg 48%
    17:00 +27°C° 0 mm 3 mps 759 mmHg 53%
    18:00 +26°C° 0 mm 3 mps 758 mmHg 58%
    19:00 +25°C° 0 mm 3 mps 758 mmHg 64%
    20:00 +24°C° 0 mm 3 mps 758 mmHg 67%
    21:00 +22°C° 0 mm 3 mps 758 mmHg 70%
    22:00 +22°C° 0 mm 3 mps 758 mmHg 74%
    23:00 +21°C° 0 mm 2 mps 758 mmHg 77%
    Show more